Regional Weather Roundup
Issued by NWS

Home | Current Version | Previous Version | Graphics & Text | Print | Product List | Glossary On
Versions: 1 2 3 4 5 6 7 8 9 10 11 12 13 14 15 16 17 18 19 20 21 22 23 24 25 26 27 28 29 30 31 32 33 34 35 36 37 38 39 40 41 42 43 44 45 46 47 48 49 50
000
ASUS43 KOAX 282210
RWRNE

WEATHER ROUNDUP FOR NEBRASKA
NATIONAL WEATHER SERVICE OMAHA NE
500 PM CDT SUN AUG 28 2016

NOTES: SATELLITE DATA IS BEING USED TO AUGMENT CLOUD COVER ABOVE
       12000 FEET.
       "FAIR" INDICATES FEW OR NO CLOUDS BELOW 12,000 FEET WITH NO
       SIGNIFICANT WEATHER AND/OR OBSTRUCTIONS TO VISIBILITY.

  * THESE STATIONS DO NOT REPORT WEATHER SUCH AS RAIN...SNOW OR FOG.

NEZ001>004-019>022-054>056-282300-
NEBRASKA PANHANDLE

CITY           SKY/WX    TMP DP  RH WIND       PRES   REMARKS
SCOTTSBLUFF    MOSUNNY   89  42  19 SE10      30.06S
ALLIANCE       MOSUNNY   86  48  26 S10       30.06S
CHADRON        SUNNY     96  31  10 VRB7      29.97F HX  90
KIMBALL        CLOUDY    75  50  42 W3        30.15R
SIDNEY         CLOUDY    86  50  28 SE14      30.10F
$$

NEZ057>060-069>072-079>082-282300-
SOUTHWEST NEBRASKA

CITY           SKY/WX    TMP DP  RH WIND       PRES   REMARKS
NORTH PLATTE   MOSUNNY   87  57  35 S12       30.05S
IMPERIAL       SUNNY     85  53  33 SE16      30.06F
LEXINGTON      CLOUDY    84  62  48 S13       30.06S
MCCOOK         CLOUDY    82  59  45 S9        30.06F
OGALLALA       MOSUNNY   91  48  23 S15G21    30.05S
$$

NEZ005>010-023>029-035>040-094-282300-
NORTH CENTRAL NEBRASKA

CITY           SKY/WX    TMP DP  RH WIND       PRES   REMARKS
AINSWORTH      MOSUNNY   89  57  33 S14       30.01S
BROKEN BOW     MOSUNNY   84  62  47 S16G26    30.05S
O`NEILL        SUNNY     92  54  27 S13G24    30.02S HX  90
ORD            SUNNY     87  59  38 S13       30.02F
THEDFORD       SUNNY     92  55  29 SW8       30.03S HX  90
$$

NEZ041-046>049-061>064-073>077-083>087-282300-
SOUTH CENTRAL NEBRASKA

CITY           SKY/WX    TMP DP  RH WIND       PRES   REMARKS
GRAND ISLAND   MOSUNNY   88  67  49 S12G18    30.04F HX  91
AURORA         MOSUNNY   89  67  48 S15       30.04F HX  92
HASTINGS       SUNNY     89  63  41 S12       30.05F HX  90
HEBRON         MOSUNNY   87  68  53 S10G17    30.04S HX  90
HOLDREGE       CLOUDY    83  63  51 S13       30.05F
KEARNEY *      PTSUNNY   88  66  48 S12G20    30.03F HX  90
YORK           MOSUNNY   90  68  48 S13       30.04F HX  93
$$

NEZ011>018-030>034-042>045-282300-
NORTHEAST NEBRASKA

CITY           SKY/WX    TMP DP  RH WIND       PRES   REMARKS
NORFOLK        CLOUDY    86  70  58 S8        30.03F HX  90
ALBION         CLOUDY    85  68  56 SE8       30.05S
BLAIR          CLOUDY    87  74  66 S13       30.06S HX  95
FREMONT        CLOUDY    85  73  66 SE10      30.05S HX  92
TEKAMAH        MOSUNNY   85  72  65 SE7       30.03F HX  91
WAYNE          CLOUDY    84  75  75 S13       30.05S HX  91
$$

NEZ050>053-065>068-078-088>093-282300-
SOUTHEAST NEBRASKA

CITY           SKY/WX    TMP DP  RH WIND       PRES   REMARKS
LINCOLN        SUNNY     89  69  51 SE14      30.04F HX  93
OMAHA EPPLEY   CLOUDY    89  73  59 S17       30.05R HX  97
BEATRICE       PTSUNNY   90  69  50 S10       30.04S HX  94
FALLS CITY     LGT RAIN  75  72  90 N5        30.08S
NEBRASKA CITY  TSTM      71  71 100 SE21      30.11R
PLATTSMOUTH    CLOUDY    79  65  62 SE10G16   30.08R
$$

NEZ044-045-051>053-067-282300-
OMAHA AREA

CITY           SKY/WX    TMP DP  RH WIND       PRES   REMARKS
OMAHA EPPLEY   CLOUDY    89  73  59 S17       30.05R HX  97
BLAIR          CLOUDY    87  74  66 S13       30.06S HX  95
FREMONT        CLOUDY    85  73  66 SE10      30.05S HX  92
MILLARD        CLOUDY   N/A N/A N/A SE9       30.05S
OFFUTT AFB     CLOUDY    83  70  64 SE13      30.06S
PLATTSMOUTH    CLOUDY    79  65  62 SE10G16   30.08R
WAHOO          FAIR      83  68  59 SE8       30.05S
$$




USA.gov is the U.S. government's official web portal to all federal, state and local government web resources and services.